User: anonymous   Login
Location: Unspecified
(0.0000°N, 0.0000°E)
Time: 19:15:44
(UTC+00:00)
Language:

STARLINK-32270 - Orbit

View from above orbital plane
View from above orbital plane
View from above satellite
View from above satellite

Ground track
Ground track

The orbit is defined by the following mean orbital elements,

1 60364U          26145.48426616 +.00000000 +00000-0 +49477-4 0 00002
2 60364  53.1614 313.0112 0001168  76.9642 283.1489 15.30199485    02
Epoch (UTC): 25 May 2026 11:37:20
Eccentricity: 0.0001168
inclination: 53.1614°
perigee height: 474 km
apogee height: 476 km
right ascension of ascending node: 313.0112°
argument of perigee: 76.9642°
revolutions per day: 15.30199485
mean anomaly at epoch: 283.1489°

The dashed part of the orbit path shows where the satellite is in the earth's shadow,  

DLR